Location: Azul
(36.7830°S, 59.8500°W)
Time: 00:52:48
(UTC-03:00)

ISS - Pass Details

Date: 21 June 2017
Orbit: 401 x 408 km, 51.6° (Epoch: 29 June)

Event Time Altitude Azimuth Distance (km) Brightness Sun altitude
Exits shadow 06:37:48 22° 329° (NNW) 949 -2.1 -18.3°
Drops below altitude 10° 06:39:51 10° 6° (N) 1,458 -0.7 -17.9°
Sets 06:42:09 0° 20° (NNE) 2,310 0.6 -17.4°
